OpenBCM V2.0.3 (Linux)

Packet Radio Mailbox

IZ3LSV

[San Dona' di P. JN]

 Login: GUEST





  
LU9DCE > KEPS     14.02.18 18:13l 261 Lines 13006 Bytes #999 (0) @ WW
BID : 31819_LU9DCE
Read: GUEST
Subj: SAT TLE OF 14
Path: IZ3LSV<IR2UBX<EA2RCF<LU9DCE
Sent: 180214/1601Z @:LU9DCE.TOR.BA.ARG.SOAM #:31819 [TORTUGUITAS] FBB7.07
From: LU9DCE@LU9DCE.TOR.BA.ARG.SOAM
To  : KEPS@WW


            __    _  _  ___  ____   ___  ____    ____  ____  ____
           (  )  / )( \/ _ \(    \ / __)(  __)  (  _ \(  _ \/ ___)
           / (_/\) \/ (\__  )) D (( (__  ) _)    ) _ ( ) _ (\___ \
           \____/\____/(___/(____/ \___)(____)  (____/(____/(____/
               ESTACION DE PACKET RADIO - BUENOS AIRES (GF05OM)
                   BOLETINES INFORMATIVOS PROGRAMADOS (BIP)
                    LU9DCE@GMX.COM - RF 147070 @ 1200 BAUD
                           telnet lu9dce.dynu.com
             BBS port 6300 / NODE port 3694 / DXCLUSTER port 9000

+------------------------------------------------------------------------------+
OSCAR 7
1 07530U 74089B   18044.95321059 -.00000049  00000-0 -30734-4 0  9990
2 07530 101.6701  14.2057 0011853 212.9141 180.9125 12.53631138979150
OSCAR 11 (UoSAT 2)
1 14781U 84021B   18045.53770156  .00000090  00000-0  17261-4 0  9998
2 14781  97.6661  86.8759 0009819 120.8849 239.3333 14.82980245826263
OSCAR 19 (LUSAT)
1 20442U 90005G   18044.82495988 -.00000012 +00000-0 +11674-4 0  9993
2 20442 098.5998 344.1502 0012261 149.6287 210.5610 14.32886583466223
KITSAT B
1 22825U 93061C   18044.93641225 -.00000011 +00000-0 +13504-4 0  9997
2 22825 098.8476 018.9184 0008276 353.6156 006.4919 14.30021648271688
POSAT 1
1 22826U 93061D   18044.91178492 -.00000012 +00000-0 +13182-4 0  9990
2 22826 098.8417 018.9464 0008619 343.0049 017.0843 14.30352477271883
RADIO ROSTO
1 23439U 94085A   18044.89717795 -.00000061 +00000-0 -52428-3 0  9990
2 23439 064.8151 188.2289 0161336 203.9781 324.1668 11.27566612952661
JAS 2
1 24278U 96046B   18045.18641169 -.00000008  00000-0  25421-4 0  9999
2 24278  98.5288 260.8068 0351308  70.0979 293.7651 13.53081246 61606
TECHSAT 1B
1 25397U 98043D   18044.89726041 -.00000019 +00000-0 +10622-4 0  9990
2 25397 098.6382 347.4571 0001993 050.1610 309.9743 14.23639620017964
ISS (ZARYA)
1 25544U 98067A   18044.97086806 +.00001540 +00000-0 +30547-4 0  9994
2 25544 051.6423 272.9736 0003536 100.1059 100.8646 15.54090790099353
PCSAT
1 26931U 01043C   18044.88248895 -.00000033 +00000-0 +19219-4 0  9991
2 26931 067.0507 187.5715 0005726 281.4232 078.6226 14.30493792854846
SAUDISAT 1C
1 27607U 02058C   18045.53034671  .00000029  00000-0  24882-4 0  9993
2 27607  64.5551 104.9429 0050531 357.9367   2.1518 14.75419455814862
CUTE-1
1 27844U 03031E   18044.90217858 +.00000057 +00000-0 +45520-4 0  9991
2 27844 098.6889 055.3649 0009968 014.7285 345.4181 14.22094124758630
CUBESAT XI 4
1 27848U 03031J   18044.96805528 +.00000041 +00000-0 +38484-4 0  9992
2 27848 098.6978 055.7849 0010052 024.3734 335.7917 14.21700767758524
MOZHAYETS 4
1 27939U 03042A   18045.51723483  .00000116  00000-0  29328-4 0  9996
2 27939  97.9695 187.9664 0013222 171.9754 276.6392 14.66656952768839
CUBESAT XI 5
1 28895U 05043F   18044.93882021 +.00000133 +00000-0 +34281-4 0  9993
2 28895 097.8897 201.5168 0018191 098.9623 261.3640 14.63508160655611
CUTE-1.7+APD II
1 32785U 08021C   18044.86118290 +.00000218 +00000-0 +29293-4 0  9998
2 32785 097.5529 062.8940 0014643 087.9882 272.3012 14.88060361530768
DELFI C3
1 32789U 08021G   18045.38503965  .00001292  00000-0  93371-4 0  9998
2 32789  97.5286 103.2271 0012343   3.7628 356.3690 15.05741887533305
SEEDS
1 32791U 08021J   18044.88136189 +.00000403 +00000-0 +46669-4 0  9996
2 32791 097.5449 067.9765 0014843 071.6614 288.6218 14.90465777531067
YUBELEINY
1 32953U 08025A   18045.54206801  .00000037  00000-0  19531-3 0  9993
2 32953  82.5002  88.9596 0020346 116.6225 243.6942 12.43081559441539
PRISM (HITOMI)
1 33493U 09002B   18045.51178506  .00000294  00000-0  31841-4 0  9990
2 33493  98.1427 302.8186 0015732   7.2523 352.8929 14.96067835492002
KKS-1 (KISEKI)
1 33499U 09002H   18045.55535622  .00000118  00000-0  25540-4 0  9990
2 33499  98.3484 223.3722 0008486 329.7429  30.3288 14.75293935487099
SWISSCUBE
1 35932U 09051B   18044.88728341  .00000108  00000-0  35359-4 0  9993
2 35932  98.5253 193.2183 0006994 221.7274 138.3390 14.56119993445497
BEESAT
1 35933U 09051C   18044.92347267 +.00000092 +00000-0 +31673-4 0  9990
2 35933 098.5292 194.7227 0004977 234.5258 125.5475 14.56228275445529
ITUPSAT 1
1 35935U 09051E   18044.90878159 +.00000084 +00000-0 +30530-4 0  9991
2 35935 098.5407 194.9623 0007344 230.9607 129.0937 14.55410091445362
XIWANG-1 (HOPE-1)
1 36122U 09072B   18044.96040768 -.00000038 +00000-0 +12048-4 0  9990
2 36122 100.0836 065.3221 0007901 041.3651 318.8060 13.16343375392332
TISAT 1
1 36799U 10035E   18044.88146783 +.00000280 +00000-0 +34667-4 0  9995
2 36799 098.0870 177.9852 0011153 250.7508 109.2503 14.90691689411587
JUGNU
1 37839U 11058B   18044.38748288  .00000317  00000-0  27395-4 0  9991
2 37839  19.9622  67.9408 0018808 322.8514 165.6600 14.12609111327849
SRMSAT
1 37841U 11058D   18044.51127889  .00000294  00000-0  16361-4 0  9992
2 37841  19.9721 113.8417 0011657 211.6767 272.7436 14.10598052327399
M-CUBED/EXP-1 PRIME
1 37855U 11061F   18044.95665524 +.00001319 +00000-0 +75418-4 0  9999
2 37855 101.7246 044.4254 0177742 086.8255 275.3275 15.04043668342654
HORYU 2
1 38340U 12025D   18044.99392890  .00000203  00000-0  38001-4 0  9995
2 38340  98.3741  62.4355 0010523 239.8331 120.1835 14.75497890308945
STRAND 1
1 39090U 13009E   18044.90490038 +.00000038 +00000-0 +28828-4 0  9997
2 39090 098.5326 252.8031 0008326 307.9877 052.0556 14.35010755260122
SOMP
1 39134U 13015E   18045.54486122  .00001596  00000-0  85442-4 0  9998
2 39134  64.8639 163.5289 0025145 227.2269 132.6743 15.18804387266273
BEESAT 3
1 39135U 13015F   18044.70876111 +.00001385 +00000-0 +80413-4 0  9996
2 39135 064.8695 178.0084 0030318 248.6528 111.1361 15.16384396265530
BEESAT 2
1 39136U 13015G   18044.70157294 +.00001254 +00000-0 +74854-4 0  9998
2 39136 064.8692 180.4874 0030149 249.7611 110.0272 15.15861931265486
CUBEBUG 1
1 39153U 13018D   18045.22417171  .00000189  00000-0  31796-4 0  9995
2 39153  97.9792 141.2104 0016580 349.2935  10.7922 14.80338698259405
ZACUBE
1 39417U 13066B   18044.66585087 +.00000214 +00000-0 +33469-4 0  9998
2 39417 097.6018 079.8105 0058781 198.3611 161.5481 14.80873936228518
TRITON 1
1 39427U 13066M   18045.51178652  .00000169  00000-0  35416-4 0  9993
2 39427  97.6377  49.6013 0112805 292.7289  66.2026 14.67610377226582
GOMX 1
1 39430U 13066Q   18045.54768449  .00000313  00000-0  65906-4 0  9997
2 39430  97.6849  31.3467 0151693 358.2670   1.7986 14.59022737225273
HUMSAT D
1 39433U 13066T   18045.15981044  .00000418  00000-0  46594-4 0  9993
2 39433  97.6214 105.7448 0032299 130.7160 229.6873 14.91745356230080
50 SAT
1 39436U 13066W   18045.38333129  .00070514  00000-0  90580-3 0  9993
2 39436  97.7116 171.6713 0006314 277.8345  82.2193 15.58857717234079
CUBEBUG 2
1 39440U 13066AA  18045.54282754  .00000213  00000-0  36966-4 0  9991
2 39440  97.6094  68.0184 0079454 233.1554 126.2353 14.75611475227831
FUNCUBE 1
1 39444U 13066AE  18045.06373334  .00000248  00000-0  37098-4 0  9992
2 39444  97.6030  81.5561 0058099 192.8736 167.0998 14.81638771227427
UWE-3
1 39446U 13066AG  18044.89562369 +.00000195 +00000-0 +32856-4 0  9990
2 39446 097.6042 073.3608 0069471 216.8299 142.8131 14.78143798226313
SPROUT
1 39770U 14029E   18045.56680690  .00000300  00000-0  39972-4 0  9997
2 39770  97.8728 147.6948 0007566 247.2168 112.8262 14.86662253202146
UNISAT 6
1 40012U 14033C   18045.53095226  .00000185  00000-0  35359-4 0  9991
2 40012  97.8266 286.2152 0057329 233.6432 125.9479 14.73763456196630
DUCHIFAT 1
1 40021U 14033M   18045.31964726  .00000525  00000-0  60090-4 0  9995
2 40021  97.9179 323.8184 0011951 219.3765 140.6584 14.90195795198657
QB50P1
1 40025U 14033R   18045.54739694  .00000276  00000-0  35651-4 0  9996
2 40025  97.9091 321.1805 0011400 224.2532 135.7774 14.88634915198544
CHUBUSAT 1
1 40300U 14070C   18045.51846065  .00000424  00000-0  21929-4 0  9999
2 40300  97.3753 125.7927 0020124 337.9141 213.8285 15.21380020181622
NUDT-PHONESAT
1 40900U 15049B   18044.95686605 +.00001955 +00000-0 +91669-4 0  9999
2 40900 097.4429 054.6676 0015322 099.6579 260.6388 15.20773200133188
ZDPS 2A
1 40901U 15049C   18045.51915408  .00001019  00000-0  55071-4 0  9997
2 40901  97.4594  53.7981 0015440 102.8010 257.4950 15.16850679133066
ZDPS 2B
1 40902U 15049D   18045.21270172  .00000802  00000-0  44309-4 0  9998
2 40902  97.4483  51.7257 0015526 101.1557 259.1423 15.16656578133001
XW-2A
1 40903U 15049E   18045.51979929  .00002063  00000-0  53675-4 0  9995
2 40903  97.3991  79.0906 0016035 110.6044 249.6923 15.39996931134927
KAITUO 1A
1 40904U 15049F   18045.55899503  .00000531  00000-0  31985-4 0  9997
2 40904  97.4578  51.4519 0016470 100.1983  15.8227 15.14879967132934
OBJECT G
1 40905U 15049G   18045.54192015  .00000488  00000-0  30490-4 0  9992
2 40905  97.4567  49.7176 0017535  94.7872 265.5362 15.13855561132869
XW-2C
1 40906U 15049H   18045.54278260  .00000755  00000-0  43813-4 0  9990
2 40906  97.4589  51.3044 0016785  94.6535 265.6615 15.15012794132922
XW-2D
1 40907U 15049J   18045.50693139  .00000812  00000-0  46714-4 0  9990
2 40907  97.4561  50.9825 0016150  92.9267 267.3814 15.15150829132926
LILACSAT 2
1 40908U 15049K   18044.90570781 +.00000354 +00000-0 +23389-4 0  9995
2 40908 097.4669 049.9065 0017757 095.3523 264.9735 15.13404363132722
XW-2F
1 40910U 15049M   18045.54856397  .00001197  00000-0  65102-4 0  9994
2 40910  97.4570  52.1180 0016907  89.4906 270.8264 15.16255813132871
XW-2B
1 40911U 15049N   18044.92569339 +.00000676 +00000-0 +39542-4 0  9993
2 40911 097.4599 050.9015 0016046 095.2054 265.1010 15.15098181132732
